When you browse on this site, cookies collect data to enhance your experience and personalize the content and advertising you see.
Visit our Privacy Policy to learn more. By continuing to use the site, you agree to this use of cookies and data.
  • In United Kingdom
  • List of Countries
  • For 7 days
  • Water Temperature
  • Weather Map
  • Weather Widgets
  • user-avatar
    Login

    Hourly Weather Vanadzor

    Today, 15 September, Sunday

    Time Temperature Precipitation Wind Pressure Humidity
    00:00 +9°C° 0 mm 0 mps 637 mmHg 93%
    01:00 +9°C° 0 mm 0 mps 637 mmHg 92%
    02:00 +9°C° 0 mm 0 mps 637 mmHg 92%
    03:00 +9°C° 0 mm 0 mps 637 mmHg 92%
    04:00 +9°C° 0 mm 0 mps 637 mmHg 91%
    05:00 +9°C° 0 mm 0 mps 637 mmHg 90%
    06:00 +10°C° 0 mm 1 mps 637 mmHg 89%
    07:00 +12°C° 0 mm 1 mps 638 mmHg 82%
    08:00 +14°C° 0 mm 1 mps 638 mmHg 75%
    09:00 +18°C° 0 mm 1 mps 639 mmHg 69%
    10:00 +19°C° 0 mm 1 mps 639 mmHg 64%
    11:00 +20°C° 0 mm 1 mps 639 mmHg 60%
    12:00 +21°C° 0 mm 1 mps 640 mmHg 56%
    13:00 +20°C° 0.3 mm 2 mps 639 mmHg 58%
    14:00 +20°C° 0.3 mm 2 mps 639 mmHg 60%
    15:00 +20°C° 0 mm 3 mps 639 mmHg 63%
    16:00 +18°C° 0.2 mm 2 mps 639 mmHg 70%
    17:00 +17°C° 0.2 mm 2 mps 638 mmHg 78%
    18:00 +15°C° 0.2 mm 2 mps 638 mmHg 85%
    19:00 +14°C° 0 mm 2 mps 638 mmHg 87%
    20:00 +14°C° 0 mm 1 mps 638 mmHg 89%
    21:00 +13°C° 0 mm 1 mps 639 mmHg 91%
    22:00 +13°C° 0 mm 1 mps 639 mmHg 90%
    23:00 +13°C° 0 mm 1 mps 638 mmHg 89%

    Tomorrow, 16 September, Monday

    Time Temperature Precipitation Wind Pressure Humidity
    00:00 +13°C° 0 mm 1 mps 638 mmHg 87%
    01:00 +12°C° 0.1 mm 1 mps 638 mmHg 88%
    02:00 +12°C° 0.1 mm 1 mps 638 mmHg 89%
    03:00 +12°C° 0.1 mm 1 mps 638 mmHg 90%
    04:00 +12°C° 0.1 mm 1 mps 638 mmHg 91%
    05:00 +11°C° 0.1 mm 1 mps 637 mmHg 92%
    06:00 +11°C° 0.1 mm 1 mps 637 mmHg 93%
    07:00 +13°C° 0.1 mm 1 mps 638 mmHg 87%
    08:00 +15°C° 0.1 mm 2 mps 638 mmHg 81%
    09:00 +17°C° 0.1 mm 2 mps 638 mmHg 75%
    10:00 +18°C° 0 mm 2 mps 638 mmHg 74%
    11:00 +18°C° 0 mm 2 mps 638 mmHg 73%
    12:00 +19°C° 0 mm 3 mps 637 mmHg 72%
    13:00 +19°C° 0.2 mm 2 mps 637 mmHg 71%
    14:00 +19°C° 0.2 mm 2 mps 637 mmHg 71%
    15:00 +19°C° 0.2 mm 2 mps 636 mmHg 71%
    16:00 +18°C° 0.2 mm 2 mps 636 mmHg 77%
    17:00 +17°C° 0.2 mm 2 mps 636 mmHg 84%
    18:00 +15°C° 0.2 mm 1 mps 635 mmHg 90%
    19:00 +15°C° 0 mm 1 mps 635 mmHg 91%
    20:00 +14°C° 0 mm 1 mps 636 mmHg 92%
    21:00 +14°C° 0 mm 1 mps 636 mmHg 93%
    22:00 +13°C° 0 mm 1 mps 636 mmHg 92%
    23:00 +13°C° 0 mm 1 mps 635 mmHg 90%

    Day after tomorrow, 17 September, Tuesday

    Time Temperature Precipitation Wind Pressure Humidity
    00:00 +13°C° 0 mm 1 mps 635 mmHg 88%
    01:00 +13°C° 0 mm 1 mps 635 mmHg 84%
    02:00 +13°C° 0 mm 1 mps 635 mmHg 80%
    03:00 +13°C° 0 mm 1 mps 635 mmHg 76%
    04:00 +13°C° 0 mm 1 mps 635 mmHg 74%
    05:00 +13°C° 0 mm 2 mps 634 mmHg 73%
    06:00 +13°C° 0 mm 2 mps 634 mmHg 71%
    07:00 +15°C° 0 mm 2 mps 635 mmHg 63%
    08:00 +18°C° 0 mm 3 mps 636 mmHg 54%
    09:00 +21°C° 0 mm 3 mps 637 mmHg 46%
    10:00 +22°C° 0 mm 4 mps 637 mmHg 44%
    11:00 +23°C° 0 mm 5 mps 637 mmHg 41%
    12:00 +25°C° 0 mm 5 mps 637 mmHg 39%
    13:00 +25°C° 0 mm 5 mps 636 mmHg 37%
    14:00 +25°C° 0 mm 5 mps 636 mmHg 36%
    15:00 +25°C° 0 mm 5 mps 636 mmHg 34%
    16:00 +22°C° 0.1 mm 4 mps 635 mmHg 44%
    17:00 +20°C° 0.1 mm 4 mps 635 mmHg 53%
    18:00 +18°C° 0.1 mm 3 mps 634 mmHg 62%
    19:00 +16°C° 0.7 mm 3 mps 634 mmHg 69%
    20:00 +14°C° 0.7 mm 3 mps 635 mmHg 77%
    21:00 +14°C° 0.7 mm 2 mps 635 mmHg 84%
    22:00 +13°C° 0.1 mm 2 mps 635 mmHg 81%
    23:00 +13°C° 0.1 mm 2 mps 635 mmHg 78%

    18 September, Wednesday

    Time Temperature Precipitation Wind Pressure Humidity
    00:00 +13°C° 0.1 mm 2 mps 635 mmHg 75%
    01:00 +13°C° 0 mm 2 mps 635 mmHg 75%
    02:00 +12°C° 0 mm 2 mps 635 mmHg 75%
    03:00 +12°C° 0 mm 2 mps 635 mmHg 75%
    04:00 +12°C° 0 mm 2 mps 635 mmHg 76%
    05:00 +12°C° 0 mm 2 mps 636 mmHg 77%
    06:00 +10°C° 0 mm 2 mps 636 mmHg 78%
    07:00 +14°C° 0 mm 2 mps 637 mmHg 70%
    08:00 +16°C° 0 mm 1 mps 638 mmHg 62%
    09:00 +20°C° 0 mm 1 mps 639 mmHg 54%
    10:00 +20°C° 0 mm 2 mps 639 mmHg 47%
    11:00 +21°C° 0 mm 2 mps 640 mmHg 40%
    12:00 +23°C° 0 mm 2 mps 640 mmHg 34%
    13:00 +24°C° 0 mm 2 mps 640 mmHg 33%
    14:00 +24°C° 0 mm 2 mps 639 mmHg 33%
    15:00 +24°C° 0 mm 1 mps 639 mmHg 32%
    16:00 +22°C° 0 mm 1 mps 638 mmHg 42%
    17:00 +20°C° 0 mm 1 mps 638 mmHg 51%
    18:00 +16°C° 0 mm 0 mps 637 mmHg 61%
    19:00 +15°C° 0 mm 0 mps 637 mmHg 64%
    20:00 +15°C° 0 mm 1 mps 637 mmHg 67%
    21:00 +14°C° 0 mm 1 mps 637 mmHg 70%
    22:00 +14°C° 0 mm 1 mps 637 mmHg 70%
    23:00 +14°C° 0 mm 1 mps 637 mmHg 69%

    19 September, Thursday

    Time Temperature Precipitation Wind Pressure Humidity
    00:00 +14°C° 0 mm 1 mps 637 mmHg 69%
    01:00 +13°C° 0 mm 1 mps 637 mmHg 67%
    02:00 +13°C° 0 mm 1 mps 637 mmHg 66%
    03:00 +13°C° 0 mm 1 mps 637 mmHg 64%
    04:00 +13°C° 0 mm 1 mps 637 mmHg 62%
    05:00 +13°C° 0 mm 1 mps 637 mmHg 60%
    06:00 +13°C° 0 mm 1 mps 636 mmHg 58%
    07:00 +15°C° 0 mm 1 mps 637 mmHg 53%
    08:00 +17°C° 0 mm 0 mps 638 mmHg 48%
    09:00 +20°C° 0 mm 0 mps 639 mmHg 42%
    10:00 +21°C° 0 mm 0 mps 639 mmHg 39%
    11:00 +24°C° 0 mm 1 mps 639 mmHg 36%
    12:00 +25°C° 0 mm 1 mps 639 mmHg 33%
    13:00 +25°C° 0 mm 1 mps 639 mmHg 33%
    14:00 +26°C° 0 mm 2 mps 639 mmHg 33%
    15:00 +26°C° 0 mm 2 mps 638 mmHg 32%
    16:00 +23°C° 0 mm 2 mps 637 mmHg 43%
    17:00 +21°C° 0 mm 1 mps 637 mmHg 54%
    18:00 +19°C° 0 mm 1 mps 636 mmHg 65%
    19:00 +18°C° 0 mm 1 mps 636 mmHg 69%
    20:00 +16°C° 0 mm 1 mps 636 mmHg 73%
    21:00 +15°C° 0 mm 1 mps 636 mmHg 76%
    22:00 +14°C° 0 mm 1 mps 636 mmHg 76%
    23:00 +14°C° 0 mm 1 mps 636 mmHg 75%

    20 September, Friday

    Time Temperature Precipitation Wind Pressure Humidity
    00:00 +14°C° 0 mm 1 mps 636 mmHg 75%
    01:00 +13°C° 0 mm 1 mps 635 mmHg 75%
    02:00 +13°C° 0 mm 1 mps 635 mmHg 75%
    03:00 +12°C° 0 mm 1 mps 635 mmHg 75%
    04:00 +12°C° 0 mm 1 mps 635 mmHg 74%
    05:00 +12°C° 0 mm 1 mps 635 mmHg 72%
    06:00 +12°C° 0 mm 1 mps 634 mmHg 71%
    07:00 +15°C° 0 mm 1 mps 635 mmHg 64%
    08:00 +18°C° 0 mm 1 mps 636 mmHg 56%
    09:00 +21°C° 0 mm 1 mps 636 mmHg 48%
    10:00 +21°C° 0 mm 2 mps 636 mmHg 44%
    11:00 +24°C° 0 mm 2 mps 636 mmHg 39%
    12:00 +25°C° 0 mm 3 mps 636 mmHg 35%
    13:00 +25°C° 0 mm 3 mps 636 mmHg 35%
    14:00 +25°C° 0 mm 3 mps 636 mmHg 34%
    15:00 +26°C° 0 mm 3 mps 635 mmHg 34%
    16:00 +22°C° 0 mm 3 mps 634 mmHg 44%
    17:00 +20°C° 0 mm 2 mps 633 mmHg 54%
    18:00 +19°C° 0 mm 1 mps 633 mmHg 64%
    19:00 +18°C° 0 mm 1 mps 633 mmHg 65%
    20:00 +16°C° 0 mm 1 mps 633 mmHg 67%
    21:00 +15°C° 0 mm 1 mps 633 mmHg 68%
    22:00 +15°C° 0 mm 1 mps 632 mmHg 68%
    23:00 +15°C° 0 mm 1 mps 632 mmHg 68%
    Show more